Miscellaneous Local Product
Issued by NWS Hastings, NE

Home | Current Version | Previous Version | Text Only | Print | Product List | Glossary On
Versions: 1 2 3 4 5 6 7 8 9 10 11 12 13 14 15 16 17 18 19 20 21 22 23 24 25 26 27 28 29 30 31 32 33 34 35 36 37 38 39 40 41 42 43 44 45 46 47 48 49 50
710
AXUS43 KGID 291502
MISGRI

GID CWA HOURLY WEATHER ROUNDUP
NATIONAL WEATHER SERVICE HASTINGS NE
1000 AM CDT THU JUN 29 2017

NOTE: "FAIR" INDICATES FEW OR NO CLOUDS BELOW 12,000 FEET WITH NO
SIGNIFICANT WEATHER AND/OR OBSTRUCTIONS TO VISIBILITY.

...SOUTH CENTRAL NEBRASKA...

CITY           SKY/WX    TMP DP  RH WIND       PRES   REMARKS
GRAND ISLAND   CLOUDY    73  64  73 S16G24    29.77R
HASTINGS       PTSUNNY   70  63  78 SW7       29.80R
KEARNEY          N/A    N/A N/A N/A MISG        N/A
ORD            CLOUDY    72  58  61 SW3       29.77R
YORK           CLOUDY    70  63  78 SW13G21   29.73R
AURORA         CLOUDY    71  63  77 S13       29.75R
LEXINGTON      SUNNY     75  62  63 S21       29.83R
HOLDREGE       MOSUNNY   71  62  74 S17G23    29.82R
HEBRON         CLOUDY    69  65  88 S14G20    29.78F

...NEBRASKA PANHANDLE...

CITY           SKY/WX    TMP DP  RH WIND       PRES   REMARKS
CHADRON        SUNNY     68  49  50 N7        29.92R
ALLIANCE       SUNNY     67  50  54 NW13      29.93R
SCOTTSBLUFF    SUNNY     65  49  56 W9        29.97R
SIDNEY         SUNNY     68  51  54 NW13      29.98R

...WESTERN AND NORTH CENTRAL NEBRASKA...

CITY           SKY/WX    TMP DP  RH WIND       PRES   REMARKS
VALENTINE      SUNNY     73  52  47 CALM      29.82R
AINSWORTH      SUNNY     70  58  66 NW6       29.83R
ONEILL         CLOUDY    72  60  67 CALM      29.78S
BROKEN BOW     SUNNY     75  59  57 SW9       29.80R
IMPERIAL       SUNNY     75  55  49 S8        29.88R
NORTH PLATTE   SUNNY     73  59  61 VRB3      29.84R
MCCOOK         MOSUNNY   74  62  66 SE17G24   29.86R

...EASTERN NEBRASKA...

CITY           SKY/WX    TMP DP  RH WIND       PRES   REMARKS
NORFOLK        CLOUDY    73  64  73 S5        29.74F
SO SIOUX CITY  CLOUDY    74  68  81 SE9       29.76R
TEKAMAH        CLOUDY    75  61  61 S6        29.75F
ALBION         CLOUDY    73  63  71 CALM      29.76S
OMAHA EPPLEY   CLOUDY    73  62  68 S12       29.72F
OFFUTT AFB     CLOUDY    71  63  76 E7        29.71F
MILLARD        CLOUDY    73  64  75 SE9       29.70F
LINCOLN        CLOUDY    67  64  90 S7        29.72F
NEBRASKA CITY  CLOUDY    67  67 100 SE14      29.67F
BEATRICE       CLOUDY    67  65  93 S13G18    29.77R
FALLS CITY     CLOUDY    67  64  90 SW5       29.80F

...NORTHERN KANSAS...

CITY           SKY/WX    TMP DP  RH WIND       PRES   REMARKS
GOODLAND       SUNNY     71  57  61 SE8       29.90R
HILL CITY      MOSUNNY   71  64  78 SE16G29   29.83R
NORTON         SUNNY     70  55  60 SE18G31   29.84R
PHILLIPSBURG   SUNNY     72  63  73 SE17      29.82R
SMITH CENTER   SUNNY     70  63  78 SE16      29.81R
HAYS           CLOUDY    68  61  78 E26G35    29.82S
RUSSELL        CLOUDY    68  60  75 E28G35    29.82F
CONCORDIA      CLOUDY    69  66  90 S18       29.81F
SALINA         CLOUDY    68  64  87 E17G25    29.84F
TOPEKA         TSTM      67  66  97 SE16      29.85F FOG



USA.gov is the U.S. government's official web portal to all federal, state and local government web resources and services.